Miscellaneous Local Product
Issued by NWS North Platte, NE

Home | Current Version | Previous Version | Text Only | Print | Product List | Glossary Off
Versions: 1 2 3 4 5 6 7 8 9 10 11 12 13 14 15 16 17 18 19 20 21 22 23 24 25 26 27 28 29 30 31 32 33 34 35 36 37 38 39 40 41 42 43 44 45 46 47 48 49 50

000
AXUS43 KLBF 011510
MISLBF


WESTERN AND NORTH CENTRAL NEBRASKA HOURLY WEATHER ROUNDUP
NATIONAL WEATHER SERVICE NORTH PLATTE NE
1000 AM CDT SUN MAY 01 2016

NOTE: "FAIR" INDICATES FEW OR NO CLOUDS BELOW 12,000 FEET WITH NO
SIGNIFICANT WEATHER AND/OR OBSTRUCTIONS TO VISIBILITY.

NOTE: STATIONS NOT REPORTING VARIABLES SUCH AS SKY/WEATHER OR
PRESSURE ARE PROVIDED BY RAWS AND APRS NETWORKS AND ARE NOT UNDER
NATIONAL WEATHER SERVICE QUALITY CONTROL.

...OBSERVATIONS IN AND NEAR THE EASTERN PANHANDLE OF NEBRASKA...

CITY           SKY/WX    TMP DP  RH WIND       PRES   REMARKS
PINE RIDGE     SUNNY     44  31  60 NW9       30.30R
CHADRON        PTSUNNY   47  31  53 NE10      30.32R
ALLIANCE       CLOUDY    35  31  85 NW12      30.28R WCI  27
SIDNEY         CLOUDY    36  32  85 NW9       30.30R WCI  29
CRESCENT LAKE    N/A     37  33  85 N10         N/A  WCI  30
BIG SPRINGS      N/A     37  35  93 NW8         N/A  WCI  31
$$

...OBSERVATIONS IN NORTHERN NEBRASKA AND FAR SOUTHERN SOUTH DAKOTA...

CITY           SKY/WX    TMP DP  RH WIND       PRES   REMARKS
WINNER         FAIR      48  37  65 N13       30.26R
VALENTINE      SUNNY     46  35  65 N15       30.25R
THEDFORD         N/A     40  37  87 N14       30.22R WCI  32
AINSWORTH      CLOUDY    46  36  69 N21       30.22R
O`NEILL        DRIZZLE   40  38  93 N13       30.21R WCI  32
ORD            LGT RAIN  42  39  89 N17G23    30.16R
BROKEN BOW     CLOUDY    43  39  86 N21G31    30.16R
VALENTINE NWR    N/A     40  35  82 N13G21      N/A  WCI  32
BUTTE            N/A     41  36  83 N14         N/A
HALSEY           N/A     39  37  92 NW7G14      N/A  WCI  34
CHAMBERS         N/A     42  41  96 N7          N/A
EWING            N/A     42  41  95 N3G13       N/A
$$

...OBSERVATIONS IN SOUTHWEST NEBRASKA AND FAR NORTHEAST COLORADO...

CITY           SKY/WX    TMP DP  RH WIND       PRES   REMARKS
HOLYOKE        CLOUDY    37  34  87 NW15G22   30.28R WCI  28
IMPERIAL       CLOUDY    40  36  86 NW17G24   30.25R WCI  31
OGALLALA       PTSUNNY   43  33  68 N18G25    30.25R
NORTH PLATTE   CLOUDY    42  37  82 N17G25    30.21R
MCCOOK         CLOUDY    42  38  85 N16       30.21R
LEXINGTON      CLOUDY    44  39  84 N18G25    30.17R
PAXTON           N/A     40  39  95 NW12        N/A  WCI  33
STAPLETON        N/A     40  36  87 CALM        N/A
GOTHENBURG       N/A     40  36  87 N8          N/A  WCI  34
CALLAWAY         N/A     40  39  95 N18         N/A  WCI  31
$$

...OBSERVATIONS IN CENTRAL LINCOLN COUNTY AREA...

CITY           SKY/WX    TMP DP  RH WIND       PRES   REMARKS
N.P. AIRPORT   CLOUDY    42  37  82 N17G25    30.21R
N.P. DOWNTOWN    N/A     40  38  92 N13G22      N/A  WCI  32
N.P. HILLCREST   N/A     40  38  94 N21G29      N/A  WCI  30
$$

...SOME OBSERVATIONS FROM AROUND THE REGION...

CITY           SKY/WX    TMP DP  RH WIND       PRES   REMARKS
DENVER         LGT SNOW  33  30  88 N9        30.32R VSB 3/4 WCI  25
LARAMIE        CLOUDY    29  22  75 NE10      30.29R WCI  20
CHEYENNE       CLOUDY    33  27  78 N8        30.31R WCI  26
SCOTTSBLUFF    CLOUDY    44  32  62 N13       30.32R
RAPID CITY     SUNNY     48  31  51 N16       30.33R
BISMARCK       SUNNY     50  33  52 SW5       30.34S
PIERRE         SUNNY     48  34  58 N10       30.28R
SIOUX FALLS    PTSUNNY   42  36  79 N10       30.19R
OMAHA          LGT RAIN  45  44  97 N13       30.05R FOG
GRAND ISLAND   LGT RAIN  42  39  89 N15G22    30.14R
KANSAS CITY    PTSUNNY   56  48  74 W10       29.98R
WICHITA        CLOUDY    50  41  71 NW18G24   30.06S
OKLAHOMA CITY  MOSUNNY   53  40  61 N18       30.08F
DALLAS         MOSUNNY   64  46  52 N18       30.02R
AMARILLO       CLOUDY    45  33  63 N26G37    30.14S
DODGE CITY     CLOUDY    41  35  79 N18G26    30.15R
HAYS           CLOUDY    43  34  70 N20G26    30.13S
GOODLAND       CLOUDY    36  35  96 N23G31    30.22R WCI  24
$$




USA.gov is the U.S. government's official web portal to all federal, state and local government web resources and services.